Volver al catálogo

STARLINK-35339

ActivoComunicacionesVLEO
NORAD 66028·PAYLOAD·🇺🇸 United States

Lanzado Oct 16, 2025 desde Cape Canaveral Space Force Station

Loading…

Próximos Pases (próximas 24 horas)

TLE

ActualizadoSource: CelesTrak SupGP

Época: Sep 14, 2026, 22:54 UTC

1 66028C 25232Z   26257.95465278  .00047549  00000+0  14055-2 0  2576
2 66028  53.1577 301.7741 0001082  85.9317 334.2832 15.34353371    10

Sigue STARLINK-35339 en tiempo real con AllMySat

Download on the App Store